Date,TemperatureHighF,TemperatureAvgF,TemperatureLowF,DewpointHighF,DewpointAvgF,DewpointLowF,HumidityHigh,HumidityAvg,HumidityLow,PressureMaxIn,PressureMinIn,WindSpeedMaxMPH,WindSpeedAvgMPH,GustSpeedMaxMPH,PrecipitationSumIn
2013-6-1,70,60,54,52,49,44,84,68,44,30.21,30.02,10,1,11,0.00
2013-6-2,68,60,54,55,51,47,89,72,50,30.06,30.01,11,2,14,0.01
2013-6-3,71,60,52,56,52,50,93,78,52,30.09,30.02,10,2,15,0.00
2013-6-4,77,65,53,59,53,48,93,68,43,30.10,29.99,8,1,15,0.00
2013-6-5,76,65,56,59,54,49,83,68,50,30.06,29.99,11,1,15,0.00
2013-6-6,78,66,56,56,52,46,91,64,36,30.02,29.97,15,1,16,0.00
2013-6-7,67,61,56,57,51,44,81,70,52,30.12,29.99,18,4,22,0.00
2013-6-8,66,59,54,52,50,48,83,74,60,30.16,30.06,12,3,14,0.00
2013-6-9,64,57,54,52,49,46,87,74,57,30.08,29.98,11,4,15,0.00
2013-6-10,67,60,52,52,49,44,85,69,47,30.00,29.83,11,3,15,0.00
2013-6-11,65,58,52,52,48,46,83,71,53,30.06,29.89,21,7,23,0.02
2013-6-12,65,58,54,52,49,45,85,71,52,30.10,30.05,17,5,20,0.00
2013-6-13,68,60,54,53,50,46,87,72,48,30.18,30.09,10,1,13,0.00
2013-6-14,65,59,55,52,50,48,81,72,58,30.20,30.03,15,5,19,0.00
2013-6-15,73,63,53,56,53,50,92,72,50,30.02,29.88,11,1,13,0.00
2013-6-16,72,64,56,58,55,52,88,74,57,30.06,29.96,12,2,15,0.00
2013-6-17,75,64,58,56,53,48,87,69,41,30.06,29.85,19,3,21,0.01
2013-6-18,71,63,56,55,51,45,91,68,40,29.95,29.84,14,3,20,0.00
2013-6-19,65,60,56,56,52,50,86,76,59,29.97,29.88,15,3,17,0.00
2013-6-20,61,57,54,55,52,50,96,86,72,30.08,29.92,15,5,17,0.33
2013-6-21,65,59,54,58,54,51,97,83,62,30.13,30.08,12,2,13,0.01
2013-6-22,76,64,55,59,54,50,93,72,45,30.09,29.81,10,1,14,0.00
2013-6-23,71,65,60,63,59,54,96,81,68,29.80,29.55,4,0,10,0.11
2013-6-24,67,62,57,61,56,54,96,83,64,29.66,29.54,18,5,26,0.02
2013-6-25,72,63,58,60,57,53,96,83,54,29.82,29.63,25,3,36,0.12
2013-6-26,70,63,58,61,58,57,96,84,68,30.03,29.80,14,2,20,0.01
2013-6-27,70,65,61,64,61,57,97,89,77,30.16,30.00,10,0,11,0.01
2013-6-28,85,72,61,66,63,60,95,76,47,30.15,30.00,9,1,14,0.00
2013-6-29,82,72,65,67,63,60,90,73,56,30.06,29.96,7,1,9,0.00
2013-6-30,90,76,63,68,63,58,86,67,38,29.99,29.80,10,1,14,0.00